Location: N�rnberg
(49.4489°N, 11.0797°E)
Time: 17:51:27
(UTC+01:00)

Tiangong 1 - Visible Passes

Search period start: 23 November 2017 00:00
Search period end: 03 December 2017 00:00
Orbit: 284 x 308 km, 42.8° (Epoch: 23 November)

Date Brightness Start Highest point End Pass type
(mag) Time Alt. Az. Time Alt. Az. Time Alt. Az.
27 Nov 3.3 18:01:01 10° S 18:01:51 11° SSE 18:02:03 11° SSE visible
28 Nov 3.0 18:06:02 10° SSW 18:07:36 15° SSE 18:07:44 15° SSE visible
29 Nov 2.8 18:11:24 10° SW 18:13:15 17° S 18:13:17 17° S visible
30 Nov 2.8 18:16:49 10° SW 18:18:41 19° S 18:18:41 19° S visible
01 Dec 3.0 18:22:14 10° SW 18:23:58 18° S 18:23:58 18° S visible
02 Dec 3.2 18:27:39 10° SW 18:29:10 15° SSW 18:29:10 15° SSW visible
